Regional Weather Roundup
Issued by NWS

Home | Current Version | Previous Version | Graphics & Text | Print | Product List | Glossary On
Versions: 1 2 3 4 5 6 7 8 9 10 11 12 13 14 15 16 17 18 19 20 21 22 23 24 25 26 27 28 29 30 31 32 33 34 35 36 37 38 39 40 41 42 43 44 45 46 47 48 49 50
000
ASUS43 KBIS 010810
RWRND

NORTH DAKOTA REGIONAL WEATHER ROUNDUP
NATIONAL WEATHER SERVICE BISMARCK ND
200 AM CST WED MAR 01 2017

NOTE: "FAIR" INDICATES FEW OR NO CLOUDS BELOW 12,000 FEET WITH NO
SIGNIFICANT WEATHER AND/OR OBSTRUCTIONS TO VISIBILITY.


NDZ001>003-009>011-017-010900-
NORTHWEST NORTH DAKOTA

CITY           SKY/WX    TMP DP  RH WIND       PRES   REMARKS
WILLISTON      CLOUDY    21  17  84 N12       29.94R WCI   9
MINOT          LGT SNOW  14  10  84 N5        29.92R FOG     WCI   6
MINOT AFB      FLURRIES  12   9  85 CALM      29.92R
$$

NDZ018>021-031>035-040>046-010900-
SOUTHWEST NORTH DAKOTA

CITY           SKY/WX    TMP DP  RH WIND       PRES   REMARKS
BISMARCK       CLOUDY    15  11  83 E6        29.91S WCI   6
DICKINSON      MOCLDY    24  22  91 NW21G29   29.84R WCI   9
GARRISON         N/A     14  11  87 E3        29.89R
HETTINGER ARPT CLOUDY    22  18  85 NW8       29.88R WCI  12
$$

NDZ004>008-012>016-024-026-027-054-010900-
NORTHEAST NORTH DAKOTA

CITY           SKY/WX    TMP DP  RH WIND       PRES   REMARKS
GRAND FORKS    CLOUDY     9   1  70 N5        29.93R WCI   1
GRND FRKS AFB  CLOUDY     8   3  77 N8        29.94R WCI  -4
DEVILS LAKE    MOCLDY    -1  -4  87 N5        29.93S WCI -11
$$

NDZ022-023-025-028>030-036>039-047>053-010900-
SOUTHEAST NORTH DAKOTA

CITY           SKY/WX    TMP DP  RH WIND       PRES   REMARKS
FARGO          CLOUDY    17  13  84 N13       29.90R WCI   4
JAMESTOWN      FAIR      15  10  80 N10       29.90R WCI   2
$$





USA.gov is the U.S. government's official web portal to all federal, state and local government web resources and services.